User: anonymous   Login
Location: Wawayanda State Park
(41.1833°N, 74.4333°W)
Time: 18:40:11
(UTC-04:00)
Language:

Landsat 7 - Orbit

View from above orbital plane
View from above orbital plane
View from above satellite
View from above satellite

Ground track
Ground track

The orbit data is extracted from the following two-line orbital elements,

1 25682U 99020A   16212.27173873 -.00000001  00000-0  99070-5 0  9995
2 25682  98.2108 282.0837 0000675  62.2945 297.8315 14.57109616919711
Epoch (UTC): 30 July 2016 06:31:18
Eccentricity: 0.0000675
inclination: 98.2108°
perigee height: 702 km
apogee height: 703 km
right ascension of ascending node: 282.0837°
argument of perigee: 62.2945°
revolutions per day: 14.57109616
mean anomaly at epoch: 297.8315°
orbit number at epoch: 91971

The dashed part of the orbit path shows where the satellite is in the earth's shadow,  

DLR